Miscellaneous Local Product
Issued by NWS Hastings, NE

Home | Current Version | Previous Version | Graphics & Text | Print | Product List | Glossary On
Versions: 1 2 3 4 5 6 7 8 9 10 11 12 13 14 15 16 17 18 19 20 21 22 23 24 25 26 27 28 29 30 31 32 33 34 35 36 37 38 39 40 41 42 43 44 45 46 47 48 49 50
000
AXUS43 KGID 190502
MISGRI

GID CWA HOURLY WEATHER ROUNDUP
NATIONAL WEATHER SERVICE HASTINGS NE
1200 AM CDT TUE AUG 19 2014

NOTE: "FAIR" INDICATES FEW OR NO CLOUDS BELOW 12,000 FEET WITH NO
SIGNIFICANT WEATHER AND/OR OBSTRUCTIONS TO VISIBILITY.

...SOUTH CENTRAL NEBRASKA...

CITY           SKY/WX    TMP DP  RH WIND       PRES   REMARKS
GRAND ISLAND   MOCLDY    74  70  87 S3        29.85S
HASTINGS       CLOUDY    72  67  84 CALM      29.85S
KEARNEY        CLOUDY    72  70  94 CALM      29.86F
ORD            MOCLDY    72  63  73 CALM      29.85R
AURORA         CLOUDY    72  71  98 CALM      29.83S
LEXINGTON      CLOUDY    71  69  93 SE5       29.87F
HOLDREGE       CLOUDY    73  69  87 CALM      29.88R
HEBRON         CLOUDY    72  69  90 CALM      29.83S

...NEBRASKA PANHANDLE...

CITY           SKY/WX    TMP DP  RH WIND       PRES   REMARKS
CHADRON        PTCLDY    65  55  70 N3        29.93S
ALLIANCE       CLEAR     62  56  80 E6        29.97S
SCOTTSBLUFF    PTCLDY    64  57  78 NE7       29.97R
SIDNEY         PTCLDY    62  54  74 NW5       30.00R

...WESTERN AND NORTH CENTRAL NEBRASKA...

CITY           SKY/WX    TMP DP  RH WIND       PRES   REMARKS
VALENTINE      CLEAR     64  57  78 W3        29.89F
AINSWORTH      CLEAR     66  58  74 CALM      29.89F
ONEILL         CLEAR     67  62  82 NW5       29.85F
BROKEN BOW     MOCLDY    67  64  90 SE3       29.87F
IMPERIAL       CLOUDY    67  57  70 NW3       29.92R
NORTH PLATTE   CLOUDY    66  63  90 N5        29.88S
MCCOOK         CLOUDY    73  58  59 SE5       29.88F

...EASTERN NEBRASKA...

CITY           SKY/WX    TMP DP  RH WIND       PRES   REMARKS
NORFOLK        PTCLDY    73  62  68 CALM      29.82S
SO SIOUX CITY  CLEAR     69  66  90 W5        29.78F
TEKAMAH        CLEAR     76  69  79 W7        29.79R
COLUMBUS       CLEAR     70  66  88 CALM      29.83R
ALBION         PTCLDY    69  64  83 CALM      29.84S
OMAHA EPPLEY   PTCLDY    77  68  73 CALM      29.79S
OFFUTT AFB     CLEAR     74  73  99 SW3       29.79F
MILLARD        CLEAR     74  71  90 CALM      29.79S
LINCOLN        CLEAR     73  69  87 N3        29.82R
NEBRASKA CITY  CLEAR     73  69  87 S3        29.81S
BEATRICE       PTCLDY    73  70  91 CALM      29.82S
FALLS CITY     PTCLDY    72  71  97 SE3       29.80R

...NORTHERN KANSAS...

CITY           SKY/WX    TMP DP  RH WIND       PRES   REMARKS
GOODLAND       CLOUDY    67  58  72 SE8       29.97F
HILL CITY      LGT RAIN  68  61  78 W12       29.95R
NORTON         PTCLDY    68  61  77 E8        29.85F
PHILLIPSBURG   TSTM      66  63  88 SE8       29.91R
BELOIT         MOCLDY    77  72  83 NE8       29.79S
HAYS           CLOUDY    73  54  49 N16G22    29.94R
RUSSELL        TSTM      73  58  59 NW31G39   29.90R
CONCORDIA      CLOUDY    75  72  90 NE7       29.80F
SALINA         CLOUDY    79  67  66 S9        29.78S
TOPEKA         MOCLDY    77  71  82 CALM      29.79F



USA.gov is the U.S. government's official web portal to all federal, state and local government web resources and services.